New Hogan Lake Weather Center

Moon Phase Calendar



New Hogan Lake Water Level
Online Cameras

 


      

Current Conditions in Valley Springs
6/15/2021 12:49:57 PM

85°F
Feels Like 83
Clear
Humidity
28%
Pressure
30.12"
Wind
11.5 mph (NNW)
Dew Point
48°F
UV Index
10/10 (Very High)
Visibility
6 mi

Hourly Forecast

Date & Time Tue, Jun 15
12:00 PM
Tue, Jun 15
1:00 PM
Tue, Jun 15
2:00 PM
Tue, Jun 15
3:00 PM
Tue, Jun 15
4:00 PM
Tue, Jun 15
5:00 PM
Tue, Jun 15
6:00 PM
Tue, Jun 15
7:00 PM
Tue, Jun 15
8:00 PM
Tue, Jun 15
9:00 PM
Tue, Jun 15
10:00 PM
Tue, Jun 15
11:00 PM
Wed, Jun 16
12:00 AM
Wed, Jun 16
1:00 AM
Wed, Jun 16
2:00 AM
Wed, Jun 16
3:00 AM
Wed, Jun 16
4:00 AM
Wed, Jun 16
5:00 AM
Wed, Jun 16
6:00 AM
Wed, Jun 16
7:00 AM
Wed, Jun 16
8:00 AM
Wed, Jun 16
9:00 AM
Wed, Jun 16
10:00 AM
Wed, Jun 16
11:00 AM
Wed, Jun 16
12:00 PM
Wed, Jun 16
1:00 PM
Wed, Jun 16
2:00 PM
Wed, Jun 16
3:00 PM
Wed, Jun 16
4:00 PM
Wed, Jun 16
5:00 PM
Wed, Jun 16
6:00 PM
Wed, Jun 16
7:00 PM
Wed, Jun 16
8:00 PM
Wed, Jun 16
9:00 PM
Wed, Jun 16
10:00 PM
Wed, Jun 16
11:00 PM
Thu, Jun 17
12:00 AM
Thu, Jun 17
1:00 AM
Thu, Jun 17
2:00 AM
Thu, Jun 17
3:00 AM
Thu, Jun 17
4:00 AM
Thu, Jun 17
5:00 AM
Thu, Jun 17
6:00 AM
Thu, Jun 17
7:00 AM
Thu, Jun 17
8:00 AM
Thu, Jun 17
9:00 AM
Thu, Jun 17
10:00 AM
Thu, Jun 17
11:00 AM
Condition
Clear

Clear

Clear

Clear

Clear

Clear

Clear

Clear

Clear

Clear

Clear

Clear

Clear

Clouds

Clouds

Clouds

Clouds

Clouds

Clouds

Clouds

Clouds

Clouds

Clouds

Clouds

Clouds

Clouds

Clouds

Clouds

Clouds

Clouds

Clouds

Clouds

Clouds

Clouds

Clouds

Clouds

Clear

Clear

Clear

Clear

Clear

Clear

Clouds

Clouds

Clouds

Clouds

Clouds

Clouds
Temperature 84°F85°F86°F87°F89°F90°F89°F87°F79°F71°F68°F65°F64°F63°F63°F63°F62°F61°F61°F67°F73°F78°F83°F88°F92°F96°F98°F100°F101°F100°F99°F96°F86°F79°F75°F74°F72°F72°F71°F71°F71°F70°F70°F75°F83°F88°F93°F97°F
Feels Like 82°F83°F83°F84°F85°F86°F85°F84°F77°F69°F65°F63°F62°F61°F60°F60°F59°F58°F58°F64°F71°F77°F80°F84°F88°F91°F93°F95°F95°F95°F93°F91°F83°F79°F73°F72°F70°F69°F69°F69°F68°F68°F67°F73°F80°F84°F88°F92°F
Cloudiness 2%1%2%3%3%3%0%0%0%0%0%0%10%55%70%78%82%79%35%47%64%73%78%80%86%91%89%88%91%92%97%81%58%45%36%31%2%1%1%1%1%8%57%57%50%61%69%66%
Visibility 6 mi6 mi6 mi6 mi6 mi6 mi6 mi6 mi6 mi6 mi6 mi6 mi6 mi6 mi6 mi6 mi6 mi6 mi6 mi6 mi6 mi6 mi6 mi6 mi6 mi6 mi6 mi6 mi6 mi6 mi6 mi6 mi6 mi6 mi6 mi6 mi6 mi6 mi6 mi6 mi6 mi6 mi6 mi6 mi6 mi6 mi6 mi6 mi
Precipitation 0%0%0%0%0%0%0%0%0%0%0%0%0%0%0%0%0%0%0%0%0%0%0%0%0%0%0%0%0%0%0%0%0%0%0%0%0%0%0%0%0%0%0%0%0%0%0%0%
Humidity 26%28%24%20%16%12%9%11%16%20%25%27%29%30%30%30%31%32%32%29%21%18%15%12%10%9%8%7%6%6%6%7%11%13%16%18%19%20%20%20%20%20%20%20%14%12%10%8%
Dew Point 46°F48°F45°F41°F37°F30°F22°F25°F28°F28°F30°F30°F31°F31°F30°F30°F30°F30°F30°F33°F31°F30°F30°F29°F29°F28°F26°F24°F22°F21°F20°F23°F25°F24°F26°F27°F28°F28°F28°F28°F27°F27°F27°F30°F29°F28°F27°F26°F
Pressure 30.12"30.12"30.09"30.06"30.03"29.97"29.94"29.94"29.94"29.97"30"29.97"29.97"29.94"29.94"29.94"29.94"29.97"29.97"29.97"29.97"29.97"29.97"29.94"29.94"29.91"29.88"29.85"29.83"29.83"29.8"29.8"29.83"29.83"29.85"29.85"29.83"29.83"29.83"29.8"29.8"29.8"29.8"29.83"29.83"29.83"29.8"29.8"
Wind Speed 8.7 mph8.9 mph10 mph10.4 mph10.7 mph10.6 mph10 mph8.8 mph5.9 mph5 mph4.7 mph4.5 mph4.6 mph4.1 mph3.5 mph3.7 mph3.2 mph3.2 mph3.4 mph2.8 mph4.4 mph5.5 mph6.1 mph6.9 mph7.5 mph7.4 mph7.6 mph7.5 mph7.6 mph7.6 mph7.7 mph6.4 mph4.5 mph4.5 mph4.9 mph4.8 mph4.6 mph4.2 mph3.8 mph4 mph3.9 mph3.8 mph3.5 mph2.3 mph3.7 mph5.8 mph6.3 mph6.4 mph
Wind
Direction
300°
WNW
300°
WNW
301°
WNW
304°
NW
307°
NW
311°
NW
314°
NW
313°
NW
319°
NW
355°
N
19°
NNE
21°
NNE
15°
NNE
18°
NNE
20°
NNE

N
15°
NNE
10°
N
14°
NNE
353°
N
305°
NW
294°
WNW
292°
WNW
294°
WNW
296°
WNW
295°
WNW
298°
WNW
300°
WNW
302°
WNW
303°
WNW
306°
NW
318°
NW
338°
NNW
11°
N
32°
NNE
44°
NE
44°
NE
49°
NE
47°
NE
40°
NE
35°
NE
21°
NNE
22°
NNE
14°
NNE
303°
WNW
296°
WNW
292°
WNW
292°
WNW

Daily Forecast

Date High Low Precip. Humidity
Today
Jun 15

Clear
90 °F
55 °F
0%
28%
Wednesday
Jun 16

Clouds
101 °F
61 °F
0%
9%
Thursday
Jun 17

Clouds
107 °F
70 °F
0%
4%
Friday
Jun 18

Clear
111 °F
75 °F
0%
6%
Saturday
Jun 19

Clear
108 °F
73 °F
0%
8%
Sunday
Jun 20

Clear
106 °F
68 °F
0%
8%
Monday
Jun 21

Clear
91 °F
57 °F
0%
20%
Tuesday
Jun 22

Clear
89 °F
53 °F
0%
27%
Wednesday
Jun 23

Clear
91 °F
53 °F
0%
23%
Thursday
Jun 24

Clear
95 °F
59 °F
0%
19%
Friday
Jun 25

Clear
100 °F
61 °F
0%
12%
Saturday
Jun 26

Clear
100 °F
65 °F
0%
12%
Sunday
Jun 27

Clear
100 °F
62 °F
0%
16%
Monday
Jun 28

Clouds
107 °F
67 °F
0%
11%
Tuesday
Jun 29

Clear
113 °F
75 °F
0%
8%
Wednesday
Jun 30

Clear
109 °F
77 °F
0%
10%

Temperature 8-14 Day Outlook



Precipitation 8-14 Day Outlook




Quick Links
New Hogan Lake News
New Hogan Lake Photos
New Hogan Lake Videos




About Us
Contact Us
Site Map
Search Site
Advertise With Us
   
NewHogan.LakesOnline.com
THE NEW HOGAN LAKE WEBSITE

Copyright 2021, Lakes Online
Privacy    |    Legal